Flag for Canada Weather past 2 weeks in Coquitlam, British Columbia, Canada

Now
50 °F

Cool.


Feels Like: 49 °F
Forecast: 46 / 54 °F
Wind: 3 mph from Southwest

Location: P. Meadows Coastal Station

Current Time: Mar 28, 2015 at 7:23:24 AM

Latest Report: Mar 28, 2015 at 7:00 AM


Visibility: N/A

Pressure: 30.07 "Hg

Humidity: 86%

Dew point: 46 °F

Location of CoquitlamLocation

Historic Weather in Coquitlam — Graph

°F

Coquitlam temperature yesterday

Maximum temperature yesterday: 64 °F (at 3:00 PM)
Minimum temperature yesterday: 44 °F (at 5:00 AM)
Average temperature yesterday: 54 °F

Past Weeks' High & Low Weather Summary

 TemperatureHumidityPressure
High64 °F (Mar 27, 3:00 PM)100% (Mar 19, 7:00 AM)30.31 "Hg (Mar 19, 7:00 AM)
Low38 °F (Mar 17, 2:00 AM)30% (Mar 16, 5:00 PM)29.68 "Hg (Mar 14, 9:00 AM)
Average49 °F85%30.05 "Hg
* Reported Mar 13 6:00 AM — Mar 28 6:00 AM, Coquitlam, Weather by CustomWeather, © 2015

Note: Actual official high and low records may vary slightly from our data, if they occured in-between our weather recording intervals... More about our weather records

Advertising

Coquitlam weather history for previous 24 hours

 ConditionsComfort  
Time TempWeatherWind HumidityBarometerVisibility
6:00 AM
Sat, Mar 28
49 °FCool.2 mph87%30.03 "HgN/A
5:00 AM50 °FCool.3 mph82%29.99 "HgN/A
4:00 AM50 °FCool.6 mph82%29.97 "HgN/A
3:00 AM50 °FCool.6 mph82%29.96 "HgN/A
2:00 AM51 °FCool.8 mph83%29.96 "HgN/A
1:00 AM52 °FCool.5 mph86%29.94 "HgN/A
12:00 AM52 °FCool.6 mph90%29.92 "HgN/A
11:00 PM
Fri, Mar 27
53 °FCool.5 mph93%29.91 "HgN/A
10:00 PM54 °FCool.2 mph94%29.91 "HgN/A
9:00 PM55 °FCool.2 mph95%29.89 "HgN/A
8:00 PM56 °FCool.1 mph88%29.87 "HgN/A
7:00 PM59 °FCool.2 mph69%29.87 "HgN/A
6:00 PM60 °FCool.2 mph71%29.89 "HgN/A
5:00 PM61 °FCool.5 mph71%29.90 "HgN/A
4:00 PM63 °FMild.3 mph67%29.91 "HgN/A
3:00 PM64 °FMild.2 mph67%29.93 "HgN/A
2:00 PM62 °FCool.3 mph68%29.96 "HgN/A
1:00 PM62 °FCool.2 mph68%29.98 "HgN/A
12:00 PM60 °FCool.2 mph69%30.00 "HgN/A
11:00 AM57 °FCool.1 mph78%30.01 "HgN/A
10:00 AM53 °FCool.1 mph88%30.01 "HgN/A
9:00 AM52 °FCool.1 mph90%30.01 "HgN/A
8:00 AM46 °FCool.1 mph97%30.01 "HgN/A
7:00 AM45 °FCool.1 mph98%30.01 "HgN/A
Weather by CustomWeather, © 2015

See weather overviewHow to use our weather pages